Weather History for KBTA - May, 2013

Change the Weather History Date:

Tuesday, May 28, 2013

  Actual Average (KOMA) Record (KOMA)
Temperature  
Mean Temperature 68 °F 66 °F  
Max Temperature 77 °F 78 °F 97 °F (1895)
Min Temperature 60 °F 55 °F 35 °F (1947)
Degree Days  
Heating Degree Days 0 2  
Month to date heating degree days 141  
Since 1 July heating degree days 6143  
Cooling Degree Days 3 3  
Month to date cooling degree days 53  
Year to date cooling degree days 69  
Growing Degree Days 18 (Base 50)    
Moisture  
Dew Point 61 °F    
Average Humidity 78    
Maximum Humidity 96    
Minimum Humidity 53    
Precipitation  
Precipitation 0.00 in 0.16 in 2.49 in (1962)
Month to date precipitation 4.26  
Year to date precipitation 10.78  
Snow  
Snow 0.00 in 0.00 in - ()
Month to date snowfall 0.1  
Since 1 July snowfall 26.5  
Snow Depth -    
Sea Level Pressure  
Sea Level Pressure 29.70 in    
Wind  
Wind Speed 6 mph (NNE)    
Max Wind Speed 15 mph    
Max Gust Speed 20 mph    
Visibility 9 miles    
Events      
T = Trace of Precipitation, MM = Missing Value Source: NWS Daily Summary

Daily Weather History Graph

Daily Weather History Graph

Search for Another Location

Airport or City:

Trip Planner

Search our weather history database for the weather conditions in past years. The results will help you decide how hot, cold, wet, or windy it might be!

Date:

Astronomy

May. 28, 2013 Rise Set
Actual Time 5:55 AM CDT 8:48 PM CDT
Civil Twilight 5:22 AM CDT 9:21 PM CDT
Nautical Twilight 4:40 AM CDT 10:03 PM CDT
Astronomical Twilight 3:52 AM CDT 10:51 PM CDT
Moon No Moon Rise 9:45 AM CDT (5/28)
Length of Visible Light 15h 59m
Length of Day
14h 53m
Waning Gibbous, 82% of the Moon is Illuminated
May 28
Waning Gibbous
May 31
Last Quarter
Jun 8
New
Jun 16
First Quarter
Jun 23
Full

Hourly Weather History & Observations

Time (CDT) Temp. Dew Point Humidity Pressure Visibility Wind Dir Wind Speed Gust Speed Precip Events Conditions
12:15 AM 64.6 °F 62.1 °F 92% 29.65 in 10.0 mi ENE 10.4 mph - N/A   Clear
12:35 AM 64.6 °F 62.2 °F 92% 29.65 in 10.0 mi NE 5.8 mph - N/A   Scattered Clouds
12:55 AM 64.8 °F 62.1 °F 91% 29.67 in 10.0 mi NNE 9.2 mph - N/A   Mostly Cloudy
1:15 AM 64.4 °F 61.7 °F 91% 29.69 in 10.0 mi NE 5.8 mph - N/A   Scattered Clouds
1:35 AM 63.9 °F 61.7 °F 93% 29.68 in 10.0 mi NE 3.5 mph - N/A   Clear
1:55 AM 63.7 °F 61.5 °F 93% 29.68 in 10.0 mi Calm Calm - N/A   Clear
2:15 AM 63.0 °F 60.8 °F 93% 29.67 in 10.0 mi NE 6.9 mph - N/A   Clear
2:35 AM 62.8 °F 60.6 °F 93% 29.67 in 10.0 mi Calm Calm - N/A   Clear
2:55 AM 62.1 °F 60.3 °F 94% 29.66 in 10.0 mi North 3.5 mph - N/A   Clear
3:15 AM 61.2 °F 59.7 °F 95% 29.66 in 5.0 mi NNW 3.5 mph - N/A   Clear
3:35 AM 60.8 °F 59.0 °F 94% 29.67 in 5.0 mi NW 4.6 mph - N/A   Clear
3:55 AM 61.7 °F 60.1 °F 94% 29.69 in 4.0 mi NW 6.9 mph - N/A   Scattered Clouds
4:15 AM 62.1 °F 60.8 °F 96% 29.70 in 7.0 mi NW 8.1 mph - N/A   Overcast
4:35 AM 62.1 °F 60.8 °F 96% 29.71 in 7.0 mi NNW 6.9 mph - N/A   Overcast
4:55 AM 61.9 °F 60.6 °F 96% 29.69 in 5.0 mi NE 8.1 mph - N/A   Overcast
5:15 AM 61.7 °F 60.1 °F 94% 29.71 in 7.0 mi North 4.6 mph - N/A   Overcast
5:35 AM 61.3 °F 59.9 °F 95% 29.71 in 7.0 mi North 6.9 mph - N/A   Overcast
5:55 AM 61.5 °F 59.7 °F 94% 29.71 in 10.0 mi NNW 5.8 mph - N/A   Overcast
6:15 AM 61.3 °F 59.4 °F 93% 29.70 in 10.0 mi North 5.8 mph - N/A   Overcast
6:35 AM 60.4 °F 58.3 °F 93% 29.71 in 4.0 mi NNW 11.5 mph 19.6 mph N/A   Overcast
6:55 AM 60.6 °F 58.3 °F 92% 29.69 in 4.0 mi North 5.8 mph - N/A   Overcast
7:15 AM 60.8 °F 58.8 °F 93% 29.69 in 4.0 mi Calm Calm - N/A   Overcast
7:35 AM 61.7 °F 59.4 °F 92% 29.68 in 5.0 mi Calm Calm - N/A   Scattered Clouds
7:55 AM 63.0 °F 59.7 °F 89% 29.69 in 5.0 mi Calm Calm - N/A   Clear
8:15 AM 63.9 °F 60.3 °F 88% 29.69 in 7.0 mi SSE 5.8 mph - N/A   Clear
8:35 AM 64.8 °F 61.5 °F 89% 29.69 in 7.0 mi South 6.9 mph - N/A   Clear
8:55 AM 65.3 °F 60.3 °F 84% 29.69 in 10.0 mi Calm Calm - N/A   Clear
9:15 AM 66.6 °F 61.5 °F 84% 29.69 in 10.0 mi SE 3.5 mph - N/A   Clear
9:35 AM 67.8 °F 61.9 °F 81% 29.68 in 10.0 mi Calm Calm - N/A   Clear
9:55 AM 68.5 °F 61.2 °F 77% 29.67 in 10.0 mi WSW 3.5 mph - N/A   Clear
10:15 AM 69.8 °F 61.3 °F 74% 29.68 in 10.0 mi NW 4.6 mph - N/A   Clear
10:35 AM 70.5 °F 61.2 °F 72% 29.69 in 10.0 mi NW 6.9 mph - N/A   Clear
10:55 AM 71.8 °F 61.0 °F 69% 29.69 in 10.0 mi NW 5.8 mph - N/A   Clear
11:15 AM 72.1 °F 60.6 °F 67% 29.71 in 10.0 mi NNW 4.6 mph - N/A   Clear
11:35 AM 73.2 °F 61.3 °F 66% 29.71 in 10.0 mi NNW 6.9 mph - N/A   Mostly Cloudy
11:55 AM 73.2 °F 62.8 °F 70% 29.72 in 10.0 mi NNE 8.1 mph - N/A   Mostly Cloudy
12:15 PM 72.7 °F 63.0 °F 71% 29.72 in 10.0 mi North 10.4 mph - N/A   Mostly Cloudy
12:35 PM 72.5 °F 62.4 °F 71% 29.72 in 10.0 mi North 10.4 mph - N/A   Scattered Clouds
12:55 PM 72.5 °F 63.0 °F 72% 29.72 in 10.0 mi NNE 8.1 mph - N/A   Scattered Clouds
1:15 PM 72.9 °F 62.8 °F 71% 29.72 in 10.0 mi North 6.9 mph - N/A   Scattered Clouds
1:35 PM 73.4 °F 61.5 °F 66% 29.72 in 10.0 mi NNW 4.6 mph - N/A   Clear
1:55 PM 73.6 °F 61.9 °F 67% 29.72 in 10.0 mi NNE 4.6 mph - N/A   Clear
2:15 PM 74.5 °F 61.2 °F 63% 29.73 in 10.0 mi NNW 4.6 mph - N/A   Clear
2:35 PM 73.6 °F 60.3 °F 63% 29.73 in 10.0 mi Calm Calm - N/A   Clear
2:55 PM 74.3 °F 59.5 °F 60% 29.75 in 10.0 mi Calm Calm - N/A   Clear
3:15 PM 74.5 °F 61.0 °F 63% 29.75 in 10.0 mi NE 3.5 mph - N/A   Clear
3:35 PM 73.4 °F 62.1 °F 68% 29.76 in 10.0 mi NNE 5.8 mph - N/A   Clear
3:55 PM 73.4 °F 61.9 °F 67% 29.76 in 10.0 mi North 8.1 mph - N/A   Clear
4:15 PM 72.9 °F 61.2 °F 67% 29.74 in 10.0 mi North 9.2 mph - N/A   Clear
4:35 PM 72.9 °F 60.8 °F 66% 29.73 in 10.0 mi NNE 6.9 mph - N/A   Clear
4:55 PM 75.0 °F 60.4 °F 60% 29.71 in 10.0 mi NNE 8.1 mph - N/A   Clear
5:15 PM 76.3 °F 57.7 °F 53% 29.68 in 10.0 mi North 12.7 mph - N/A   Clear
5:35 PM 75.7 °F 60.1 °F 58% 29.67 in 10.0 mi NE 15.0 mph - N/A   Clear
5:55 PM 76.3 °F 61.3 °F 60% 29.69 in 10.0 mi ENE 12.7 mph 18.4 mph N/A   Clear
6:15 PM 76.8 °F 59.7 °F 55% 29.68 in 10.0 mi NNE 11.5 mph - N/A   Clear
6:35 PM 76.5 °F 61.7 °F 60% 29.67 in 10.0 mi North 13.8 mph - N/A   Clear
6:55 PM 76.1 °F 61.9 °F 61% 29.66 in 10.0 mi NNE 10.4 mph - N/A   Clear
7:15 PM 75.7 °F 61.9 °F 62% 29.67 in 10.0 mi NE 10.4 mph - N/A   Clear
7:35 PM 75.4 °F 61.5 °F 62% 29.67 in 10.0 mi NE 11.5 mph - N/A   Clear
7:55 PM 75.2 °F 61.9 °F 63% 29.66 in 10.0 mi NE 9.2 mph - N/A   Clear
8:15 PM 74.7 °F 62.4 °F 66% 29.68 in 10.0 mi ENE 6.9 mph - N/A   Clear
8:35 PM 73.6 °F 62.6 °F 68% 29.69 in 10.0 mi East 8.1 mph - N/A   Clear
8:55 PM 72.7 °F 62.8 °F 71% 29.70 in 10.0 mi East 8.1 mph - N/A   Clear
9:15 PM 71.4 °F 63.1 °F 75% 29.71 in 10.0 mi East 5.8 mph - N/A   Clear
9:35 PM 71.2 °F 63.3 °F 76% 29.71 in 10.0 mi ESE 6.9 mph - N/A   Scattered Clouds
9:55 PM 72.0 °F 62.8 °F 73% 29.72 in 10.0 mi SE 8.1 mph - N/A   Mostly Cloudy
10:15 PM 72.1 °F 63.0 °F 73% 29.70 in 10.0 mi SE 6.9 mph - N/A   Mostly Cloudy
10:35 PM 71.2 °F 63.1 °F 75% 29.69 in 10.0 mi ESE 4.6 mph - N/A   Clear
10:55 PM 69.1 °F 63.1 °F 81% 29.69 in 10.0 mi East 5.8 mph - N/A   Clear
11:15 PM 69.1 °F 62.8 °F 80% 29.71 in 10.0 mi SE 6.9 mph - N/A   Clear
11:35 PM 68.4 °F 62.6 °F 82% 29.71 in 10.0 mi SE 6.9 mph - N/A   Clear
11:55 PM 67.5 °F 63.5 °F 87% 29.70 in 10.0 mi East 8.1 mph - N/A   Clear